SCP
-0 -0 -0 -0 -0 -0 -0 -0 -0 -0 -0 -0 -0 -0 -0 -0 -0 -0 -0 -0 -0 -0 -0 -0 -0 -0 0 -0 0 -0 0 -0 0 -0 -0 -0 -0 0 0 0 0 0 0 0 0 0 0
-0 -0 -0 -0 -0 -0 -0 -0 -0 -0 -0 -0 -0 -0 -0 -0 -0 -0 -0 -0 -0 -0 -0 -0 -0 -0 0 -0 -0 -0 -0 -0 -0 -0 -0 -0 -0 0 0 -0 0 0 0 -0 -0 0 0
-0 -0 -0 -0 -0 -0 -0 -0 -0 -0 -0 -0 -0 -0 -0 -0 -0 -0 -0 -0 -0 -0 0 0 0 0 -0 0 -0 0 0 0 -0 0 0 0 0 0 -0 0 0 -0 -0 -0 -0 -0 0
-0 -0 -0 -0 -0 -0 -0 -0 -0 -0 -0 -0 -0 -0 -0 -0 -0 -0 -0 -0 -0 0 0 0 0 0 -0 0 -0 0 0 0 0 -0 -0 0 0 0 0 0 0 0 0 -0 0 0 0
-0 -0 -0 -0 -0 -0 -0 -0 -0 -0 -0 -0 -0 -0 -0 -0 -0 -0 -0 -0 0 0 0 0 0 0 0 0 -0 -0 0 0 0 -0 -0 -0 0 -0 0 -0 -0 0 0 -0 0 -0 0
-0 -0 -0 -0 -0 -0 -0 -0 -0 -0 -0 -0 -0 -0 -0 -0 -0 -0 -0 0 0 0 0 0 0 0 0 0 -0 -0 0 0 -0 -0 -0 -0 -0 -0 0 0 0 -0 -0 0 -0 0 0
-0 -0 -0 -0 -0 -0 -0 -0 -0 -0 -0 -0 -0 -0 -0 -0 -0 -0 0 0 0 0 0 0 0 0 0 0 0 -0 -0 0 0 -0 -0 -0 -0 -0 -0 0 0 -0 -0 -0 0 0 -0
-0 -0 -0 -0 -0 -0 -0 -0 -0 -0 -0 -0 -0 -0 -0 -0 -0 0 0 0 -0 -0 0 0 0 -0 -0 0 0 -0 0 -0 -0 -0 -0 0 0 0 -0 -0 0 0 -0 -0 -0 0 0
-0 -0 -0 -0 -0 -0 -0 -0 -0 -0 -0 -0 -0 -0 -0 -0 -0 0 0 0 -0 0 0 0 -0 -0 0 0 0 0 0 -0 -0 -0 -0 -0 -0 -0 0 -0 0 0 0 0 0 0 0
-0 -0 -0 -0 -0 -0 -0 -0 -0 -0 -0 -0 -0 -0 -0 -0 0 0 0 0 0 -0 -0 -0 -0 -0 -0 -0 0 -0 -0 0 -0 -0 -0 -0 -0 -0 -0 -0 0 0 -0 0 0 0 0
-0 -0 -0 -0 -0 -0 -0 -0 -0 -0 -0 -0 -0 -0 -0 0 -0 0 -0 0 0 0 0 -0 -0 -0 0 -0 0 0 -0 0 -0 0 -0 -0 0 0 0 0 0 0 -0 -0 -0 -0 0
-0 -0 -0 -0 -0 -0 -0 -0 -0 -0 -0 -0 -0 -0 -0 0 0 0 0 0 0 0 0 0 -0 -0 0 -0 0 0 0 0 0 0 0 -0 -0 -0 -0 0 0 0 0 0 -0 -0 0
0 -0 -0 -0 -0 -0 -0 -0 -0 -0 -0 -0 -0 -0 0 0 0 0 0 0 0 0 0 0 0 0 0 -0 -0 0 0 0 0 0 -0 0 -0 0 0 -0 0 0 0 0 0 0 -0
-0 -0 -0 -0 -0 -0 -0 -0 -0 -0 -0 -0 -0 -0 0 0 0 0 0 0 0 0 0 0 0 0 0 -0 0 0 0 0 -0 0 0 0 0 0 0 0 -0 0 0 0 0 0 0
-0 -0 -0 -0 -0 -0 -0 -0 -0 -0 -0 -0 -0 0 0 0 0 0 0 0 0 0 0 0 0 0 0 0 0 0 0 0 0 0 0 0 0 0 0 0 0 -0 0 0 0 0 0
-0 -0 -0 -0 -0 -0 -0 -0 -0 -0 -0 -0 0 0 0 0 0 0 0 0 0 0 0 0 0 0 0 0 0 0 0 0 0 0 0 0 0 0 0 0 0 0 0 0 0 0 0
0 0 -0 -0 -0 -0 -0 -0 -0 -0 -0 0 0 0 0 0 0 0 0 0 0 0 0 0 0 0 0 0 0 0 0 0 0 0 0 0 0 -0 0 0 0 0 0 0 0 0 0
0 0 0 0 -0 -0 -0 -0 -0 -0 -0 0 0 0 0 0 0 0 0 0 0 0 0 0 0 0 0 0 0 0 0 0 0 0 0 0 0 0 0 0 0 0 0 0 0 0 0
0 0 0 0 0 0 -0 -0 -0 -0 0 0 0 0 0 0 0 0 0 0 0 0 0 0 0 0 0 0 0 0 0 0 0 0 0 0 0 0 0 0 0 0 0 0 0 0 0
0 0 0 0 0 0 0 -0 -0 -0 0 0 0 0 0 0 0 0 0 0 0 0 0 0 0 0 0 0 0 0 0 0 0 0 0 0 0 0 0 0 0 0 0 0 0 0 0
0 0 0 0 0 0 0 0 -0 -0 0 0 0 0 0 0 0 0 0 0 0 0 0 0 0 0 0 0 0 0 0 0 0 0 0 0 0 0 0 0 0 0 0 0 0 0 0
0 0 0 0 0 0 0 0 0 -0 0 0 0 0 0 0 0 0 0 0 0 0 0 0 0 0 0 0 0 0 0 0 0 0 0 0 0 0 0 0 0 0 0 0 0 0 0
0 0 0 0 0 0 0 0 0 0 0 0 0 0 0 0 0 0 0 0 0 0 0 0 0 0 0 0 0 0 0 0 0 0 0 0 0 0 0 0 0 0 0 0 0 0 0
0 0 0 0 0 0 0 0 0 0 0 -0 -0 0 0 0 0 0 0 0 0 0 0 0 0 0 0 0 0 0 0 0 0 0 0 0 0 0 0 0 0 0 0 0 0 0 0
0 0 0 0 0 0 0 0 0 0 0 -0 -0 0 0 0 0 0 0 0 0 0 0 0 0 0 0 0 0 0 0 0 0 0 0 0 0 0 0 0 0 0 0 0 0 0 0
0 0 0 0 0 0 0 0 0 0 0 -0 -0 -0 0 0 0 0 0 0 0 0 0 0 0 0 0 0 0 0 0 0 0 0 0 0 0 0 0 0 0 0 0 0 0 0 0
0 0 0 0 0 0 0 0 0 0 0 -0 -0 -0 0 0 0 0 0 0 0 0 0 0 0 0 0 0 0 0 0 0 0 0 0 0 0 0 0 0 0 0 0 0 0 0 0
0 0 0 0 0 0 0 0 0 0 0 0 -0 -0 0 0 0 0 0 0 0 0 0 0 0 0 0 0 0 0 0 0 0 0 0 0 0 0 0 0 0 0 0 0 0 0 0
0 0 0 0 0 0 0 0 0 0 0 0 0 0 0 0 0 0 0 0 0 0 0 0 0 0 0 0 0 0 0 0 0 0 0 0 0 0 0 0 0 0 0 0 0 0 0
Wind_Speed_500mb
37 36 37 37 36 36 35 34 33 32 32 32 33 33 32 27 20 15 11 7 5 2 3 4 5 6 5 3 6 4 11 21 23 25 25 19 27 7 5 9 9 5 11 28 36 32 34
35 35 36 35 35 35 34 34 34 33 33 34 35 35 34 28 19 12 8 6 3 1 2 4 5 8 8 1 7 12 9 23 23 18 10 6 2 9 7 7 6 9 17 44 36 26 24
33 34 34 35 34 34 34 34 34 33 33 34 34 35 35 28 17 11 9 7 4 0 2 4 6 8 10 5 3 9 11 17 20 16 4 5 10 6 9 5 5 12 11 19 24 16 10
29 31 33 35 35 35 34 33 33 33 33 34 34 34 33 27 15 12 9 6 4 2 1 4 7 8 6 8 7 2 11 22 20 13 3 9 15 4 6 16 8 8 8 7 7 6 4
28 29 30 31 33 34 35 35 35 34 32 32 33 33 31 25 13 8 10 12 6 3 1 4 8 7 4 11 15 9 11 20 15 6 0 6 10 6 2 9 7 7 9 8 7 11 8
30 30 30 31 31 32 33 34 34 36 35 34 31 30 30 24 9 2 6 10 8 5 2 5 5 2 9 6 13 15 13 16 3 8 3 4 2 6 5 7 7 12 9 11 11 8 4
32 32 33 33 33 33 34 34 34 35 34 34 34 30 26 22 7 2 4 4 5 2 8 11 2 5 8 7 8 14 21 12 8 9 5 3 7 13 18 13 8 4 5 8 4 6 8
34 34 35 35 36 37 37 37 36 35 35 33 31 30 26 20 3 8 5 5 12 8 16 18 25 34 34 28 7 18 25 18 9 7 5 10 14 9 12 14 19 10 5 4 3 5 4
36 37 37 38 39 40 40 40 39 38 35 33 31 28 24 16 2 11 2 12 14 17 2 13 18 25 23 14 17 29 33 17 6 4 4 11 11 4 11 7 11 4 12 8 5 4 2
38 38 40 43 44 44 44 43 42 41 38 33 29 27 21 11 4 3 8 6 15 7 9 10 6 10 18 15 7 27 40 18 3 16 8 10 11 4 3 8 10 7 25 8 5 9 8
41 42 43 44 45 46 47 47 46 43 41 35 28 27 18 9 8 10 6 5 11 3 6 4 7 4 26 21 9 18 40 26 13 9 11 13 2 11 8 9 14 19 13 31 13 9 4
43 44 45 46 48 49 49 49 47 44 42 38 29 26 20 14 10 13 12 9 4 10 4 1 9 8 10 5 1 10 25 23 2 7 3 14 9 9 13 6 18 8 9 14 11 7 5
44 45 46 48 48 49 50 51 49 46 44 39 30 23 18 11 8 12 8 6 9 6 8 8 0 4 7 9 6 10 12 13 11 6 7 12 10 8 10 8 6 8 12 5 6 3 12
45 45 46 47 49 50 51 51 50 47 46 40 28 18 15 10 21 14 5 9 3 2 7 7 6 6 12 10 8 9 14 10 10 6 6 6 16 9 8 15 12 5 15 12 11 7 10
44 45 45 46 48 51 53 54 52 49 47 41 23 7 5 10 21 19 8 6 9 5 9 12 12 6 3 2 5 2 9 15 16 19 17 11 13 9 9 8 13 6 6 7 15 4 5
43 43 43 45 48 50 54 57 56 51 46 39 16 22 23 19 19 15 10 6 4 5 8 9 5 5 7 8 7 14 14 10 14 23 11 9 5 12 11 8 5 11 12 6 6 6 8
40 39 40 44 48 50 52 57 58 53 45 33 9 12 12 16 16 6 7 10 7 11 23 5 2 5 10 7 12 8 10 7 7 3 20 8 8 13 7 8 15 2 2 12 11 9 11
36 36 38 42 48 50 51 54 57 56 49 25 8 7 12 14 6 6 4 2 16 17 19 7 3 8 6 6 6 6 14 4 24 2 8 13 10 13 32 13 11 12 20 14 11 11 5
31 31 34 40 46 50 50 51 52 53 53 39 10 8 22 15 6 6 12 7 4 11 9 9 7 6 7 7 8 4 3 15 19 11 6 5 1 6 17 11 5 10 11 11 11 7 14
25 27 31 37 44 51 54 53 47 43 42 29 10 7 15 24 17 8 8 7 11 21 4 15 5 14 10 6 5 8 12 8 17 24 17 7 5 12 12 15 7 9 13 13 15 9 10
22 22 28 35 42 48 55 57 47 37 29 22 14 5 8 6 10 8 6 7 9 13 17 29 13 12 7 5 9 5 3 11 11 25 17 8 4 3 13 20 13 14 14 18 14 12 12
19 18 23 30 38 45 52 61 57 42 23 18 9 9 10 5 11 6 10 8 9 10 5 5 5 18 6 6 7 6 1 3 7 13 13 11 5 5 10 13 14 13 13 13 12 9 9
17 14 19 24 33 43 48 53 61 51 38 17 12 10 7 11 7 5 3 9 8 13 14 15 12 5 5 5 29 29 15 11 12 6 3 1 3 7 10 11 17 12 9 15 9 3 4
17 11 14 18 27 37 44 47 52 51 43 34 23 12 9 5 4 3 10 14 11 13 9 19 17 6 14 40 24 19 20 15 16 18 21 9 6 7 8 8 9 11 10 4 26 20 25
21 14 13 14 20 31 38 40 43 47 36 26 25 15 9 3 4 10 19 7 19 21 7 12 11 26 36 17 4 7 8 8 7 12 10 12 7 2 7 9 10 9 9 10 9 6 16
25 19 17 16 17 24 31 34 34 40 37 24 20 16 6 4 5 7 8 6 2 6 10 8 27 25 21 5 4 10 8 10 7 11 5 9 6 8 1 6 11 9 11 34 14 1 20
27 23 19 19 19 18 23 27 26 30 37 31 25 17 9 8 5 5 3 6 8 3 5 13 24 17 25 6 3 6 8 6 5 6 4 6 6 8 10 11 10 11 23 23 3 7 8
29 27 23 20 20 19 19 23 24 22 27 32 29 22 16 10 27 13 12 13 12 6 4 12 14 7 10 8 4 4 1 4 5 5 4 9 8 8 2 6 13 18 12 3 4 10 11
31 26 25 21 20 21 18 20 22 23 23 26 27 27 20 16 21 46 37 40 33 35 31 10 3 8 4 6 3 3 5 5 2 5 8 4 9 5 13 9 9 8 19 29 23 19 24
Wind_Direction_500mb
42 42 41 40 39 38 35 31 28 23 17 12 8 4 359 352 348 339 331 326 310 281 209 209 205 188 191 189 90 70 156 169 175 173 159 169 196 198 201 160 218 181 304 316 143 131 124
37 37 35 34 33 32 29 26 23 19 13 8 5 1 1 356 355 357 0 4 352 55 199 191 194 181 183 158 84 37 151 170 173 177 155 84 158 207 108 69 70 342 304 66 79 94 136
32 31 30 29 27 25 22 19 17 13 9 5 2 0 0 359 2 8 11 11 4 146 192 168 182 190 197 157 54 32 149 168 176 163 172 33 35 276 145 90 345 349 12 63 26 68 107
30 27 23 21 20 18 16 15 13 9 5 1 0 359 358 358 2 3 10 21 0 342 169 159 169 176 202 215 238 67 168 170 169 184 224 55 10 95 201 119 31 62 44 28 315 12 140
24 22 19 16 13 11 9 7 6 5 4 1 359 358 355 356 357 17 39 48 44 12 15 151 161 163 199 220 230 179 165 160 158 182 256 323 340 119 47 125 74 18 179 196 280 213 212
17 16 14 11 9 6 4 1 358 357 356 358 360 358 352 352 351 41 50 21 22 26 135 156 175 216 216 240 224 203 171 177 192 337 327 271 161 78 61 83 210 251 182 215 180 206 32
15 13 11 8 6 4 1 358 354 351 350 350 352 355 353 346 339 166 11 349 360 339 284 237 190 252 59 125 186 218 187 196 257 283 121 3 98 207 214 208 195 202 223 296 304 158 174
13 11 8 5 2 0 358 356 352 348 344 344 346 348 354 343 323 166 96 52 40 354 304 277 255 260 260 266 288 186 185 187 167 202 142 23 239 192 222 238 222 190 245 236 291 151 219
8 5 2 359 357 355 353 351 349 347 344 341 339 341 349 351 208 175 137 44 358 330 265 285 243 245 244 218 206 196 185 187 155 215 171 167 234 241 214 222 158 158 203 196 232 137 74
4 1 357 355 352 350 348 346 345 343 341 341 337 330 339 355 147 208 131 25 346 320 60 275 229 228 199 186 228 199 192 173 175 206 215 232 264 295 333 224 129 171 218 192 170 119 225
357 355 354 351 349 347 345 343 342 340 336 334 336 323 323 303 256 202 229 297 337 183 62 174 192 198 179 175 143 181 192 196 183 183 109 245 273 14 316 234 148 224 192 189 178 147 37
353 352 351 349 347 345 343 342 340 338 333 329 329 316 312 298 252 202 225 260 315 35 60 40 141 147 112 226 233 116 177 207 227 176 308 241 271 212 220 262 179 221 97 47 57 87 340
352 350 349 348 346 346 344 342 341 339 332 328 325 306 299 278 218 193 224 194 42 132 327 1 17 167 154 196 230 147 156 187 183 109 306 324 261 253 206 285 359 93 68 349 357 27 224
351 350 350 348 348 348 347 345 344 342 335 334 329 298 294 253 206 188 135 60 144 57 340 339 320 98 174 162 250 170 132 199 249 100 112 164 318 192 170 187 197 164 152 154 206 218 265
351 352 351 352 352 351 350 348 347 347 341 341 343 340 97 168 198 195 173 82 204 188 326 314 337 96 271 270 168 117 197 218 204 167 179 163 271 272 219 142 143 201 186 199 105 28 37
353 354 353 355 355 354 353 350 350 353 349 347 12 80 108 108 138 148 77 224 219 266 341 3 53 30 28 302 196 153 179 232 228 189 172 211 293 225 266 139 98 162 159 77 3 182 248
353 354 357 0 1 359 356 352 351 355 356 350 47 93 106 122 128 83 133 225 268 322 335 297 216 280 240 255 191 194 204 287 205 138 171 125 120 286 12 185 208 89 196 49 125 134 170
354 355 1 3 2 0 359 356 353 355 2 8 58 78 31 182 58 39 98 221 358 344 7 345 234 233 286 241 230 231 209 293 9 10 169 221 171 234 231 263 294 189 194 149 138 235 240
354 357 4 4 3 1 1 0 356 357 3 8 29 27 33 159 78 358 320 333 11 18 332 18 326 46 11 358 339 297 268 41 38 57 39 189 323 335 324 339 337 205 187 127 118 81 194
352 357 4 4 3 4 5 6 1 359 2 13 15 23 28 71 63 114 21 338 345 339 47 353 338 9 8 346 3 334 348 350 360 15 17 132 141 175 218 243 215 206 195 182 161 143 195
348 357 2 5 5 7 9 10 9 6 3 12 30 48 34 348 12 16 344 339 356 13 357 22 6 14 302 298 352 100 328 326 356 12 14 77 230 291 263 266 244 246 206 165 171 186 169
346 353 2 7 9 8 9 12 15 19 12 35 37 23 7 18 330 31 360 33 13 346 304 310 7 309 341 154 183 279 61 90 252 344 15 358 280 355 291 322 348 274 267 181 178 164 225
345 347 0 7 10 11 11 11 14 21 30 45 34 18 350 19 11 48 78 348 325 357 296 288 326 283 270 42 317 286 256 265 237 170 269 90 59 25 270 332 328 318 257 223 208 126 194
339 332 347 356 4 7 10 11 14 18 25 34 31 22 22 313 36 353 5 331 324 319 261 299 3 24 329 320 304 261 267 263 235 239 200 198 165 153 249 2 257 243 314 253 93 45 16
335 315 315 333 350 360 4 8 13 17 19 24 29 34 34 278 297 316 346 324 322 327 273 292 326 325 329 313 6 0 331 333 265 238 154 182 132 235 194 208 285 328 24 349 331 45 4
333 319 301 308 325 345 353 360 10 16 20 25 24 27 2 326 236 314 294 314 301 309 325 290 324 328 346 73 108 199 222 221 285 326 140 83 90 148 139 257 226 232 325 309 288 249 334
329 320 302 293 302 320 340 348 359 11 17 21 16 16 1 313 304 287 311 286 296 344 275 304 331 334 4 27 113 182 244 223 235 204 261 350 336 195 220 224 279 318 315 327 258 209 308
330 319 308 293 287 297 319 333 343 344 354 7 9 1 357 309 296 273 257 237 252 231 196 319 338 345 1 46 49 298 240 283 339 276 216 189 198 225 220 218 275 339 356 13 157 228 277
326 319 311 302 283 278 293 313 330 334 331 346 352 344 322 298 283 297 278 269 271 266 256 271 266 295 279 63 9 344 340 342 144 268 341 268 199 225 181 222 207 243 293 303 287 248 261
Wind_Speed_850mb
37 36 37 37 36 36 35 34 33 32 32 32 33 33 32 27 20 15 11 7 5 2 3 4 5 6 5 3 6 4 11 21 23 25 25 19 27 7 5 9 9 5 11 28 36 32 34
35 35 36 35 35 35 34 34 34 33 33 34 35 35 34 28 19 12 8 6 3 1 2 4 5 8 8 1 7 12 9 23 23 18 10 6 2 9 7 7 6 9 17 44 36 26 24
33 34 34 35 34 34 34 34 34 33 33 34 34 35 35 28 17 11 9 7 4 0 2 4 6 8 10 5 3 9 11 17 20 16 4 5 10 6 9 5 5 12 11 19 24 16 10
29 31 33 35 35 35 34 33 33 33 33 34 34 34 33 27 15 12 9 6 4 2 1 4 7 8 6 8 7 2 11 22 20 13 3 9 15 4 6 16 8 8 8 7 7 6 4
28 29 30 31 33 34 35 35 35 34 32 32 33 33 31 25 13 8 10 12 6 3 1 4 8 7 4 11 15 9 11 20 15 6 0 6 10 6 2 9 7 7 9 8 7 11 8
30 30 30 31 31 32 33 34 34 36 35 34 31 30 30 24 9 2 6 10 8 5 2 5 5 2 9 6 13 15 13 16 3 8 3 4 2 6 5 7 7 12 9 11 11 8 4
32 32 33 33 33 33 34 34 34 35 34 34 34 30 26 22 7 2 4 4 5 2 8 11 2 5 8 7 8 14 21 12 8 9 5 3 7 13 18 13 8 4 5 8 4 6 8
34 34 35 35 36 37 37 37 36 35 35 33 31 30 26 20 3 8 5 5 12 8 16 18 25 34 34 28 7 18 25 18 9 7 5 10 14 9 12 14 19 10 5 4 3 5 4
36 37 37 38 39 40 40 40 39 38 35 33 31 28 24 16 2 11 2 12 14 17 2 13 18 25 23 14 17 29 33 17 6 4 4 11 11 4 11 7 11 4 12 8 5 4 2
38 38 40 43 44 44 44 43 42 41 38 33 29 27 21 11 4 3 8 6 15 7 9 10 6 10 18 15 7 27 40 18 3 16 8 10 11 4 3 8 10 7 25 8 5 9 8
41 42 43 44 45 46 47 47 46 43 41 35 28 27 18 9 8 10 6 5 11 3 6 4 7 4 26 21 9 18 40 26 13 9 11 13 2 11 8 9 14 19 13 31 13 9 4
43 44 45 46 48 49 49 49 47 44 42 38 29 26 20 14 10 13 12 9 4 10 4 1 9 8 10 5 1 10 25 23 2 7 3 14 9 9 13 6 18 8 9 14 11 7 5
44 45 46 48 48 49 50 51 49 46 44 39 30 23 18 11 8 12 8 6 9 6 8 8 0 4 7 9 6 10 12 13 11 6 7 12 10 8 10 8 6 8 12 5 6 3 12
45 45 46 47 49 50 51 51 50 47 46 40 28 18 15 10 21 14 5 9 3 2 7 7 6 6 12 10 8 9 14 10 10 6 6 6 16 9 8 15 12 5 15 12 11 7 10
44 45 45 46 48 51 53 54 52 49 47 41 23 7 5 10 21 19 8 6 9 5 9 12 12 6 3 2 5 2 9 15 16 19 17 11 13 9 9 8 13 6 6 7 15 4 5
43 43 43 45 48 50 54 57 56 51 46 39 16 22 23 19 19 15 10 6 4 5 8 9 5 5 7 8 7 14 14 10 14 23 11 9 5 12 11 8 5 11 12 6 6 6 8
40 39 40 44 48 50 52 57 58 53 45 33 9 12 12 16 16 6 7 10 7 11 23 5 2 5 10 7 12 8 10 7 7 3 20 8 8 13 7 8 15 2 2 12 11 9 11
36 36 38 42 48 50 51 54 57 56 49 25 8 7 12 14 6 6 4 2 16 17 19 7 3 8 6 6 6 6 14 4 24 2 8 13 10 13 32 13 11 12 20 14 11 11 5
31 31 34 40 46 50 50 51 52 53 53 39 10 8 22 15 6 6 12 7 4 11 9 9 7 6 7 7 8 4 3 15 19 11 6 5 1 6 17 11 5 10 11 11 11 7 14
25 27 31 37 44 51 54 53 47 43 42 29 10 7 15 24 17 8 8 7 11 21 4 15 5 14 10 6 5 8 12 8 17 24 17 7 5 12 12 15 7 9 13 13 15 9 10
22 22 28 35 42 48 55 57 47 37 29 22 14 5 8 6 10 8 6 7 9 13 17 29 13 12 7 5 9 5 3 11 11 25 17 8 4 3 13 20 13 14 14 18 14 12 12
19 18 23 30 38 45 52 61 57 42 23 18 9 9 10 5 11 6 10 8 9 10 5 5 5 18 6 6 7 6 1 3 7 13 13 11 5 5 10 13 14 13 13 13 12 9 9
17 14 19 24 33 43 48 53 61 51 38 17 12 10 7 11 7 5 3 9 8 13 14 15 12 5 5 5 29 29 15 11 12 6 3 1 3 7 10 11 17 12 9 15 9 3 4
17 11 14 18 27 37 44 47 52 51 43 34 23 12 9 5 4 3 10 14 11 13 9 19 17 6 14 40 24 19 20 15 16 18 21 9 6 7 8 8 9 11 10 4 26 20 25
21 14 13 14 20 31 38 40 43 47 36 26 25 15 9 3 4 10 19 7 19 21 7 12 11 26 36 17 4 7 8 8 7 12 10 12 7 2 7 9 10 9 9 10 9 6 16
25 19 17 16 17 24 31 34 34 40 37 24 20 16 6 4 5 7 8 6 2 6 10 8 27 25 21 5 4 10 8 10 7 11 5 9 6 8 1 6 11 9 11 34 14 1 20
27 23 19 19 19 18 23 27 26 30 37 31 25 17 9 8 5 5 3 6 8 3 5 13 24 17 25 6 3 6 8 6 5 6 4 6 6 8 10 11 10 11 23 23 3 7 8
29 27 23 20 20 19 19 23 24 22 27 32 29 22 16 10 27 13 12 13 12 6 4 12 14 7 10 8 4 4 1 4 5 5 4 9 8 8 2 6 13 18 12 3 4 10 11
31 26 25 21 20 21 18 20 22 23 23 26 27 27 20 16 21 46 37 40 33 35 31 10 3 8 4 6 3 3 5 5 2 5 8 4 9 5 13 9 9 8 19 29 23 19 24
Wind_Direction_850mb
42 42 41 40 39 38 35 31 28 23 17 12 8 4 359 352 348 339 331 326 310 281 209 209 205 188 191 189 90 70 156 169 175 173 159 169 196 198 201 160 218 181 304 316 143 131 124
37 37 35 34 33 32 29 26 23 19 13 8 5 1 1 356 355 357 0 4 352 55 199 191 194 181 183 158 84 37 151 170 173 177 155 84 158 207 108 69 70 342 304 66 79 94 136
32 31 30 29 27 25 22 19 17 13 9 5 2 0 0 359 2 8 11 11 4 146 192 168 182 190 197 157 54 32 149 168 176 163 172 33 35 276 145 90 345 349 12 63 26 68 107
30 27 23 21 20 18 16 15 13 9 5 1 0 359 358 358 2 3 10 21 0 342 169 159 169 176 202 215 238 67 168 170 169 184 224 55 10 95 201 119 31 62 44 28 315 12 140
24 22 19 16 13 11 9 7 6 5 4 1 359 358 355 356 357 17 39 48 44 12 15 151 161 163 199 220 230 179 165 160 158 182 256 323 340 119 47 125 74 18 179 196 280 213 212
17 16 14 11 9 6 4 1 358 357 356 358 360 358 352 352 351 41 50 21 22 26 135 156 175 216 216 240 224 203 171 177 192 337 327 271 161 78 61 83 210 251 182 215 180 206 32
15 13 11 8 6 4 1 358 354 351 350 350 352 355 353 346 339 166 11 349 360 339 284 237 190 252 59 125 186 218 187 196 257 283 121 3 98 207 214 208 195 202 223 296 304 158 174
13 11 8 5 2 0 358 356 352 348 344 344 346 348 354 343 323 166 96 52 40 354 304 277 255 260 260 266 288 186 185 187 167 202 142 23 239 192 222 238 222 190 245 236 291 151 219
8 5 2 359 357 355 353 351 349 347 344 341 339 341 349 351 208 175 137 44 358 330 265 285 243 245 244 218 206 196 185 187 155 215 171 167 234 241 214 222 158 158 203 196 232 137 74
4 1 357 355 352 350 348 346 345 343 341 341 337 330 339 355 147 208 131 25 346 320 60 275 229 228 199 186 228 199 192 173 175 206 215 232 264 295 333 224 129 171 218 192 170 119 225
357 355 354 351 349 347 345 343 342 340 336 334 336 323 323 303 256 202 229 297 337 183 62 174 192 198 179 175 143 181 192 196 183 183 109 245 273 14 316 234 148 224 192 189 178 147 37
353 352 351 349 347 345 343 342 340 338 333 329 329 316 312 298 252 202 225 260 315 35 60 40 141 147 112 226 233 116 177 207 227 176 308 241 271 212 220 262 179 221 97 47 57 87 340
352 350 349 348 346 346 344 342 341 339 332 328 325 306 299 278 218 193 224 194 42 132 327 1 17 167 154 196 230 147 156 187 183 109 306 324 261 253 206 285 359 93 68 349 357 27 224
351 350 350 348 348 348 347 345 344 342 335 334 329 298 294 253 206 188 135 60 144 57 340 339 320 98 174 162 250 170 132 199 249 100 112 164 318 192 170 187 197 164 152 154 206 218 265
351 352 351 352 352 351 350 348 347 347 341 341 343 340 97 168 198 195 173 82 204 188 326 314 337 96 271 270 168 117 197 218 204 167 179 163 271 272 219 142 143 201 186 199 105 28 37
353 354 353 355 355 354 353 350 350 353 349 347 12 80 108 108 138 148 77 224 219 266 341 3 53 30 28 302 196 153 179 232 228 189 172 211 293 225 266 139 98 162 159 77 3 182 248
353 354 357 0 1 359 356 352 351 355 356 350 47 93 106 122 128 83 133 225 268 322 335 297 216 280 240 255 191 194 204 287 205 138 171 125 120 286 12 185 208 89 196 49 125 134 170
354 355 1 3 2 0 359 356 353 355 2 8 58 78 31 182 58 39 98 221 358 344 7 345 234 233 286 241 230 231 209 293 9 10 169 221 171 234 231 263 294 189 194 149 138 235 240
354 357 4 4 3 1 1 0 356 357 3 8 29 27 33 159 78 358 320 333 11 18 332 18 326 46 11 358 339 297 268 41 38 57 39 189 323 335 324 339 337 205 187 127 118 81 194
352 357 4 4 3 4 5 6 1 359 2 13 15 23 28 71 63 114 21 338 345 339 47 353 338 9 8 346 3 334 348 350 360 15 17 132 141 175 218 243 215 206 195 182 161 143 195
348 357 2 5 5 7 9 10 9 6 3 12 30 48 34 348 12 16 344 339 356 13 357 22 6 14 302 298 352 100 328 326 356 12 14 77 230 291 263 266 244 246 206 165 171 186 169
346 353 2 7 9 8 9 12 15 19 12 35 37 23 7 18 330 31 360 33 13 346 304 310 7 309 341 154 183 279 61 90 252 344 15 358 280 355 291 322 348 274 267 181 178 164 225
345 347 0 7 10 11 11 11 14 21 30 45 34 18 350 19 11 48 78 348 325 357 296 288 326 283 270 42 317 286 256 265 237 170 269 90 59 25 270 332 328 318 257 223 208 126 194
339 332 347 356 4 7 10 11 14 18 25 34 31 22 22 313 36 353 5 331 324 319 261 299 3 24 329 320 304 261 267 263 235 239 200 198 165 153 249 2 257 243 314 253 93 45 16
335 315 315 333 350 360 4 8 13 17 19 24 29 34 34 278 297 316 346 324 322 327 273 292 326 325 329 313 6 0 331 333 265 238 154 182 132 235 194 208 285 328 24 349 331 45 4
333 319 301 308 325 345 353 360 10 16 20 25 24 27 2 326 236 314 294 314 301 309 325 290 324 328 346 73 108 199 222 221 285 326 140 83 90 148 139 257 226 232 325 309 288 249 334
329 320 302 293 302 320 340 348 359 11 17 21 16 16 1 313 304 287 311 286 296 344 275 304 331 334 4 27 113 182 244 223 235 204 261 350 336 195 220 224 279 318 315 327 258 209 308
330 319 308 293 287 297 319 333 343 344 354 7 9 1 357 309 296 273 257 237 252 231 196 319 338 345 1 46 49 298 240 283 339 276 216 189 198 225 220 218 275 339 356 13 157 228 277
326 319 311 302 283 278 293 313 330 334 331 346 352 344 322 298 283 297 278 269 271 266 256 271 266 295 279 63 9 344 340 342 144 268 341 268 199 225 181 222 207 243 293 303 287 248 261